This demonstration page uses our WeatherBlox Daily Observations layout. Learn more.

Left ArrowRight Arrow

39.95238, -75.16362

Hourly Observations for May 23, 2016

Temp ( °F °C ) Dew Point ( °F °C ) Humidity (%) Winds ( mph kmh ) Pressure ( in mb ) Visibility ( mi km ) Precip ( " mm )
12:54 am 00:54 Mostly Cloudy 56 13.3 53 11.7 90 90 Calm 29.91 1013 10 16 0.00 0.00
1:54 am 01:54 Mostly Cloudy 56 13.3 54 12.2 93 93 Calm 29.90 1012 10 16 0.00 0.00
2:54 am 02:54 Mostly Cloudy 56 13.3 52 11.1 87 87 Calm 29.89 1012 10 16 0.00 0.00
3:54 am 03:54 Cloudy 56 13.3 52 11.1 87 87 NNW 3 6 29.89 1012 10 16 0.00 0.00
4:54 am 04:54 Mostly Cloudy 55 12.8 52 11.1 90 90 Calm 29.89 1012 10 16 0.00 0.00
5:43 am 05:43 Cloudy 56 13.3 53 11.7 90 90 Calm 29.91 1013 8 13 0.00 0.00
5:54 am 05:54 Cloudy 56 13.3 53 11.7 90 90 NNW 3 6 29.91 1013 8 13 0.00 0.00
6:54 am 06:54 Cloudy 57 13.9 53 11.7 87 87 Calm 29.92 1013 8 13 0.00 0.00
7:54 am 07:54 Mostly Cloudy 59 15 54 12.2 83 83 Calm 29.94 1014 9 14 0.00 0.00
8:54 am 08:54 Mostly Cloudy 63 17.2 55 12.8 76 76 ESE 3 6 29.94 1014 9 14 0.00 0.00
9:54 am 09:54 Mostly Cloudy 64 17.8 55 12.8 73 73 S 5 7 29.93 1013 10 16 0.00 0.00
10:54 am 10:54 Mostly Cloudy 69 20.6 55 12.8 61 61 E 6 9 29.92 1013 10 16 0.00 0.00
11:54 am 11:54 Mostly Cloudy 70 21.1 53 11.7 55 55 SE 3 6 29.93 1013 10 16 0.00 0.00
12:54 pm 12:54 Mostly Cloudy 74 23.3 52 11.1 46 46 ESE 8 13 29.91 1013 10 16 0.00 0.00
1:54 pm 13:54 Mostly Cloudy 76 24.4 54 12.2 47 47 ESE 10 17 29.89 1012 10 16 0.00 0.00
2:54 pm 14:54 Mostly Cloudy 76 24.4 52 11.1 43 43 E 8 13 29.88 1012 10 16 0.00 0.00
3:54 pm 15:54 Mostly Cloudy 74 23.3 52 11.1 46 46 E 7 11 29.86 1011 10 16 0.00 0.00
4:54 pm 16:54 Mostly Cloudy 75 23.9 53 11.7 46 46 ESE 9 15 29.85 1011 10 16 0.00 0.00
5:41 pm 17:41 Mostly Cloudy with Thunderstorms 73 22.8 52 11.1 48 48 ENE 6 9 29.85 1011 10 16 0.00 0.00
5:54 pm 17:54 Mostly Cloudy with Thunderstorms 73 22.8 53 11.7 50 50 E 6 9 29.86 1011 10 16 0.00 0.00
6:15 pm 18:15 Mostly Cloudy with Thunderstorms 62 16.7 56 13.3 80 80 ENE 16 26 29.88 1012 7 11 0.02 0.51
6:21 pm 18:21 Mostly Cloudy with Strong Thunderstorms 62 16.7 55 12.8 78 78 ESE 7 11 29.88 1012 5 8 0.05 1.27
6:33 pm 18:33 Mostly Cloudy with Thunderstorms 63 17.2 56 13.3 78 78 NW 6 9 29.88 1012 7 11 0.08 2.03
6:42 pm 18:42 Mostly Cloudy with Thunderstorms 64 17.8 56 13.3 75 75 WSW 7 11 29.88 1012 10 16 0.08 2.03
6:48 pm 18:48 Mostly Cloudy 64 18 57 14 78 78 S 6 9 29.88 1012 10 16 0.08 2.03
6:54 pm 18:54 Mostly Cloudy 63 17.2 56 13.3 78 78 S 7 11 29.87 1012 10 16 0.08 2.03
7:54 pm 19:54 Mostly Cloudy 62 16.7 56 13.3 80 80 NW 7 11 29.90 1013 10 16 0.00 0.00
8:54 pm 20:54 Mostly Cloudy 61 16.1 57 13.9 87 87 Calm 29.91 1013 10 16 0.00 0.00
9:54 pm 21:54 Mostly Cloudy 61 16.1 55 12.8 81 81 SSE 3 6 29.93 1013 10 16 0.00 0.00
10:54 pm 22:54 Cloudy 61 16.1 55 12.8 81 81 SSW 6 9 29.94 1014 10 16 0.00 0.00
11:54 pm 23:54 Cloudy 60 15.6 52 11.1 75 75 SSW 7 11 29.94 1014 10 16 0.00 0.00

Powered by AerisWeather